Location: Erdweis
(48.5167°N, 15.3500°E)
Time: 02:00:25
(UTC+00:00)

Exosat Rocket - Pass Details

Date: 18 September 2020
Orbit: 760 x 2514 km, 72.3° (Epoch: 31 October)

Event Time Altitude Azimuth Distance (km) Brightness Sun altitude
Rises 18:58:49 0° 189° (S) 3,707 6.9 -19.1°
Reaches altitude 10° 19:01:37 10° 185° (S) 2,591 6.0 -19.5°
Maximum altitude 19:07:03 51° 110° (ESE) 990 3.6 -20.4°
Drops below altitude 10° 19:11:53 10° 35° (NE) 2,303 5.9 -21.1°
Sets 19:14:14 0° 30° (NNE) 3,255 6.8 -21.4°
